Stations météo

réclame
Mon MeteoGroup
Castlederg, Grande-Bretagne (3904): Température de l'air & dewpoint: 02.12.2019 01:00:00 - 08.12.2019 01:00:00 (GMT)Castlederg, Grande-Bretagne (3904): Température de l'air -20cm: 02.12.2019 01:00:00 - 08.12.2019 01:00:00 (GMT)Castlederg, Grande-Bretagne (3904): Vitesse du vent & gusts: 02.12.2019 01:00:00 - 08.12.2019 01:00:00 (GMT)Castlederg, Grande-Bretagne (3904): Direction du vent: 02.12.2019 01:00:00 - 08.12.2019 01:00:00 (GMT)Castlederg, Grande-Bretagne (3904): reduced air pressure: 02.12.2019 01:00:00 - 08.12.2019 01:00:00 (GMT)Castlederg, Grande-Bretagne (3904): visibility: 02.12.2019 01:00:00 - 08.12.2019 01:00:00 (GMT)Castlederg, Grande-Bretagne (3904): Quantités de précipitations: 02.12.2019 01:00:00 - 08.12.2019 01:00:00 (GMT)
Date & Time tt [°C] td [°C] tt -20cm [°C] ff [km/h] ff [knt] fx [km/h] fx [knt] dd ppp [hPa] vv [km] rr [mm]
08.12.2019 01:00:00 8,3 5,7 - 21 11 57 31 W 990,0 16 0,2
08.12.2019 00:00:00 9,7 6,7 - 29 16 55 30 W 988,9 15 0,0
07.12.2019 23:00:00 8,8 7,1 - 18 10 80 43 WSW 988,2 30 0,2
07.12.2019 22:00:00 11,4 10,9 - 35 19 59 32 SSW 987,1 3,7 1,2
07.12.2019 21:00:00 10,9 10,0 - 37 20 65 35 SSW 987,3 3,7 0,6
07.12.2019 20:00:00 10,9 10,0 - 37 20 57 31 SSW 989,7 7 3,6
07.12.2019 19:00:00 11,0 9,8 - 31 17 70 38 S 991,1 7 2,2
07.12.2019 18:00:00 11,4 9,6 - 39 21 65 35 S 993,4 12 0,6
07.12.2019 17:00:00 11,2 9,3 - 21 11 46 25 SSW 996,0 12 0,0
07.12.2019 16:00:00 11,2 9,6 - 24 13 - - SSW 997,7 14 0,0
07.12.2019 15:00:00 11,2 9,8 - 29 16 48 26 SSW 999,1 16 0,0
07.12.2019 14:00:00 11,3 10,1 - 26 14 - - SSW 1001,0 12 0,0
07.12.2019 13:00:00 11,2 10,2 - 28 15 - - SSW 1001,9 10 0,0
07.12.2019 12:00:00 10,7 9,8 - 26 14 - - SSW 1003,1 21 0,0
07.12.2019 11:00:00 10,0 9,3 - 26 14 - - SSW 1004,1 35 0,0
07.12.2019 10:00:00 9,0 8,4 - 22 12 - - SSW 1004,9 10 0,0
07.12.2019 09:00:00 8,4 7,7 7,5 24 13 - - SSW 1005,6 50 0,0
07.12.2019 08:00:00 8,2 7,6 - 18 10 - - SSW 1006,3 9 0,0
07.12.2019 07:00:00 7,9 7,1 - 9 5 - - SSW 1006,8 50 0,0
07.12.2019 06:00:00 8,5 7,5 - 21 11 - - WSW 1007,1 28 0,0
07.12.2019 05:00:00 8,2 7,4 - 18 10 - - WSW 1007,4 30 0,2
07.12.2019 04:00:00 7,9 7,4 - 18 10 - - WSW 1007,3 11 0,0
07.12.2019 03:00:00 8,0 7,4 - 16 9 - - WSW 1007,2 28 0,2
07.12.2019 02:00:00 7,2 6,7 - 11 6 - - WSW 1007,0 6 0,0
07.12.2019 01:00:00 7,0 6,0 - 15 8 - - WSW 1007,0 27 0,0
07.12.2019 00:00:00 8,0 6,7 - 16 9 55 30 WSW 1006,7 6 0,0
06.12.2019 23:00:00 7,7 6,2 - 9 5 - - W 1006,2 30 0,2
06.12.2019 22:00:00 8,5 7,1 - 11 6 - - W 1005,6 30 0,0
06.12.2019 21:00:00 8,4 6,9 - 11 6 - - W 1004,9 22 0,0
06.12.2019 20:00:00 8,4 6,7 - 8 4 - - WSW 1004,7 13 0,0
06.12.2019 19:00:00 8,3 6,9 - 13 7 - - W 1004,0 17 0,0
06.12.2019 18:00:00 8,4 7,3 - 15 8 - - W 1003,3 14 0,0
06.12.2019 17:00:00 8,2 7,0 - 21 11 - - W 1002,2 7 0,0
06.12.2019 16:00:00 8,3 6,9 - 18 10 - - W 1000,7 25 0,2
06.12.2019 15:00:00 9,2 7,8 - 15 8 - - W 999,8 22 0,0
06.12.2019 14:00:00 9,0 7,5 - 13 7 - - W 998,9 18 0,0
06.12.2019 13:00:00 9,2 7,6 - 15 8 - - W 998,1 7 0,0
06.12.2019 12:00:00 8,7 7,1 - 13 7 - - W 997,7 45 0,4
06.12.2019 11:00:00 8,6 7,3 - 15 8 - - W 997,1 30 0,4
06.12.2019 10:00:00 9,0 7,9 - 16 9 - - WSW 996,2 14 0,2
06.12.2019 09:00:00 8,4 7,9 7,7 13 7 - - WSW 995,5 45 1,4
06.12.2019 08:00:00 8,7 8,1 - 18 10 46 25 WSW 995,3 7 1,4
06.12.2019 07:00:00 9,5 8,1 - 26 14 - - WSW 995,5 8 0,2
06.12.2019 06:00:00 9,3 8,2 - 24 13 52 28 WSW 996,1 4,7 0,0
06.12.2019 05:00:00 10,2 9,4 - 37 20 57 31 WSW 996,1 8 0,2
06.12.2019 04:00:00 11,0 10,6 - 24 13 - - SW 996,3 3,8 0,4
06.12.2019 03:00:00 11,1 10,8 - 16 9 - - SW 997,2 5 0,6
06.12.2019 02:00:00 11,0 10,7 - 22 12 - - WSW 997,9 4,9 0,0
06.12.2019 01:00:00 11,0 10,6 - 26 14 - - WSW 998,3 7 0,2
06.12.2019 00:00:00 11,0 10,8 - 24 13 - - WSW 999,1 7 0,0
05.12.2019 23:00:00 11,1 10,6 - 34 18 50 27 WSW 999,5 7 0,0
05.12.2019 22:00:00 11,3 10,7 - 29 16 52 28 WSW 999,6 5 0,0
05.12.2019 21:00:00 11,4 11,0 - 31 17 48 26 WSW 1000,0 5 0,0
05.12.2019 20:00:00 11,5 10,9 - 28 15 48 26 WSW 1000,0 7 0,0
05.12.2019 19:00:00 11,6 10,9 - 37 20 65 35 WSW 999,2 6 0,2
05.12.2019 18:00:00 11,7 11,2 - 39 21 61 33 WSW 999,0 4,0 0,2
05.12.2019 17:00:00 11,8 11,0 - 35 19 74 40 WSW 998,9 4,8 2,4
05.12.2019 16:00:00 12,8 11,7 - 44 24 68 37 WSW 998,7 5 1,8
05.12.2019 15:00:00 12,0 11,7 - 24 13 46 25 SW 998,8 2,2 2,8
05.12.2019 14:00:00 11,2 10,9 - 29 16 50 27 SW 999,6 1,9 1,6
05.12.2019 13:00:00 10,5 10,0 - 28 15 50 27 SW 1001,2 2,8 2,0
05.12.2019 12:00:00 9,4 8,7 - 37 20 57 31 SSW 1002,2 2,8 1,6
05.12.2019 11:00:00 8,2 7,5 - 29 16 54 29 SSW 1004,0 8 1,0
05.12.2019 10:00:00 7,9 6,8 - 31 17 57 31 SSW 1005,3 4,6 0,4
05.12.2019 09:00:00 7,7 6,4 6,7 37 20 55 30 SSW 1006,7 4,2 0,4
05.12.2019 08:00:00 7,1 5,5 - 24 13 - - SSW 1008,3 14 0,0
05.12.2019 07:00:00 7,1 5,0 - 22 12 - - S 1009,5 40 0,0
05.12.2019 06:00:00 7,3 5,2 - 34 18 52 28 SSW 1010,3 40 0,0
05.12.2019 05:00:00 6,3 5,3 - 24 13 - - SSW 1011,4 30 0,0
05.12.2019 04:00:00 6,0 4,5 - 28 15 - - SSW 1012,2 45 0,0
05.12.2019 03:00:00 6,3 4,6 - 31 17 - - SW 1012,6 28 0,0
05.12.2019 02:00:00 5,6 3,9 - 24 13 - - SW 1012,9 35 0,0
05.12.2019 01:00:00 6,2 4,2 - 24 13 - - SSW 1013,4 30 0,0
05.12.2019 00:00:00 5,6 3,6 - 24 13 - - SW 1013,9 30 0,0
04.12.2019 23:00:00 4,8 2,9 - 15 8 - - SSW 1014,2 20 0,0
04.12.2019 22:00:00 5,0 3,3 - 18 10 - - SSW 1014,4 30 0,0
04.12.2019 21:00:00 5,1 3,5 - 15 8 - - SW 1014,4 35 0,0
04.12.2019 20:00:00 5,8 4,4 - 21 11 - - SSW 1014,3 26 0,0
04.12.2019 19:00:00 5,8 4,2 - 21 11 - - SSW 1014,3 25 0,0
04.12.2019 18:00:00 5,6 3,6 - 13 7 - - SW 1014,0 23 0,0
04.12.2019 17:00:00 6,6 4,0 - 9 5 - - WSW 1013,9 27 0,0
04.12.2019 16:00:00 6,7 4,0 - 18 10 - - SW 1013,7 23 0,4
04.12.2019 15:00:00 7,6 3,9 - 21 11 - - SW 1013,3 19 0,0
04.12.2019 14:00:00 8,9 4,4 - 21 11 - - SW 1013,3 16 0,0
04.12.2019 13:00:00 9,1 5,2 - 26 14 - - SW 1012,9 14 0,0
04.12.2019 12:00:00 9,3 7,1 - 16 9 - - WSW 1012,8 12 0,0
04.12.2019 11:00:00 8,8 7,6 - 15 8 - - WSW 1012,7 13 0,2
04.12.2019 10:00:00 7,9 7,2 - 16 9 - - WSW 1012,3 16 0,0
04.12.2019 09:00:00 7,9 7,3 6,7 28 15 - - SSW 1011,5 40 0,2
04.12.2019 08:00:00 7,7 6,8 - 22 12 - - SSW 1010,9 45 1,0
04.12.2019 07:00:00 7,4 6,3 - 21 11 - - S 1010,6 20 0,8
04.12.2019 06:00:00 7,0 5,8 - 18 10 - - S 1010,5 14 0,6
04.12.2019 05:00:00 6,6 5,5 - 18 10 - - S 1011,1 5 0,2
04.12.2019 04:00:00 7,0 5,2 - 16 9 - - S 1011,3 12 0,0
04.12.2019 03:00:00 6,9 4,5 - 18 10 - - SSW 1012,0 19 0,0
04.12.2019 02:00:00 6,8 4,1 - 13 7 - - SSW 1012,7 50 0,0
04.12.2019 01:00:00 6,6 3,9 - 15 8 - - S 1013,4 50 0,0
04.12.2019 00:00:00 5,9 3,7 - 4 2 - - SE 1014,1 35 0,0
03.12.2019 23:00:00 5,4 3,6 - 18 10 - - S 1014,2 45 0,0
03.12.2019 22:00:00 4,9 3,1 - 22 12 - - S 1014,7 30 0,0
03.12.2019 21:00:00 5,7 3,3 - 18 10 - - SSE 1015,4 40 0,0
03.12.2019 20:00:00 6,4 3,8 - 9 5 - - SE 1016,2 50 0,0
03.12.2019 19:00:00 6,7 4,0 - 9 5 - - SE 1016,3 45 0,0
03.12.2019 18:00:00 7,0 4,0 - 13 7 - - S 1017,0 40 0,0
03.12.2019 17:00:00 6,3 4,0 - 15 8 - - SSE 1017,3 35 0,0
03.12.2019 16:00:00 6,2 3,8 - 11 6 - - SSE 1017,7 40 0,0
03.12.2019 15:00:00 6,7 3,7 - 21 11 - - S 1017,8 45 0,0
03.12.2019 14:00:00 7,3 4,2 - 18 10 - - SSE 1018,9 30 0,0
03.12.2019 13:00:00 6,8 3,6 - 16 9 - - S 1019,8 35 0,0
03.12.2019 12:00:00 7,3 3,9 - 13 7 - - S 1020,8 35 0,0
03.12.2019 11:00:00 7,0 3,9 - 9 5 - - S 1021,8 29 0,0
03.12.2019 10:00:00 5,7 3,2 - 8 4 - - S 1022,7 28 0,0
03.12.2019 09:00:00 5,2 3,5 6,5 13 7 - - S 1023,0 30 0,0
03.12.2019 08:00:00 5,3 4,0 - 15 8 - - S 1023,3 30 0,0
03.12.2019 07:00:00 2,9 2,2 - 2 1 - - E 1023,7 20 0,0
03.12.2019 06:00:00 2,9 1,9 - 2 1 - - NE 1024,2 14 0,0
03.12.2019 05:00:00 4,7 3,0 - 8 4 - - SSE 1024,8 29 0,0
03.12.2019 04:00:00 5,1 3,4 - 9 5 - - SE 1025,3 30 0,0
03.12.2019 03:00:00 5,3 3,6 - 9 5 - - SSE 1026,1 35 0,0
03.12.2019 02:00:00 5,8 3,5 - 9 5 - - S 1026,6 45 0,0
03.12.2019 01:00:00 6,2 3,8 - 9 5 - - S 1027,2 35 0,0
03.12.2019 00:00:00 6,1 4,0 - 13 7 - - SSW 1028,2 45 0,0
02.12.2019 23:00:00 6,1 4,2 - 15 8 - - SSW 1028,2 35 0,0
02.12.2019 22:00:00 6,2 4,1 - 13 7 - - SSW 1028,2 45 0,0
02.12.2019 21:00:00 6,6 4,2 - 11 6 - - SSW 1028,5 40 0,0
02.12.2019 20:00:00 6,6 4,4 - 16 9 - - SSW 1028,8 45 0,0
02.12.2019 19:00:00 6,9 4,3 - 13 7 - - WSW 1028,9 50 0,0
02.12.2019 18:00:00 6,7 4,4 - 9 5 - - SSW 1028,9 45 0,0
02.12.2019 17:00:00 6,5 4,3 - 8 4 - - SW 1028,8 45 0,0
02.12.2019 16:00:00 6,8 4,2 - 15 8 - - SSW 1029,2 50 0,0
02.12.2019 15:00:00 7,7 4,7 - 13 7 - - SW 1029,5 45 0,0
02.12.2019 14:00:00 7,9 4,6 - 15 8 - - WSW 1029,9 50 0,0
02.12.2019 13:00:00 8,1 4,8 - 15 8 - - SW 1030,3 45 0,0
02.12.2019 12:00:00 7,0 4,4 - 11 6 - - SSW 1031,1 50 0,0
02.12.2019 11:00:00 6,5 3,6 - 4 2 - - S 1031,9 50 0,0
02.12.2019 10:00:00 5,4 3,3 - 8 4 - - S 1031,9 50 0,0
02.12.2019 09:00:00 4,7 2,5 6,2 5 3 - - SW 1031,8 50 0,0
02.12.2019 08:00:00 4,5 2,4 - 4 2 - - S 1031,5 50 0,0
02.12.2019 07:00:00 3,7 2,0 - 5 3 - - WSW 1031,6 50 0,0
02.12.2019 06:00:00 3,6 1,9 - 8 4 - - SW 1032,1 50 0,0
02.12.2019 05:00:00 4,0 1,8 - 11 6 - - WSW 1032,3 50 0,0
02.12.2019 04:00:00 4,0 2,2 - 8 4 - - W 1032,3 45 0,0
02.12.2019 03:00:00 3,6 2,5 - 5 3 - - W 1032,9 40 0,0
02.12.2019 02:00:00 3,0 1,4 - 5 3 - - W 1033,0 50 0,0
02.12.2019 01:00:00 2,5 0,9 - 9 5 - - W 1033,1 45 0,0

tt = Température de l'air
td = dewpoint
tt -20cm = Température de l'air -20cm
ff = Vitesse du vent
fx = gusts
dd = Direction du vent
ppp = reduced air pressure
vv = visibility
rr = Quantités de précipitations

stations d'obs. à proximité